Frankfort, KY

4:39 PM EDT on September 28, 2016 (GMT -0400)
Capital City

Weather History for KFFT - November, 2013

Change the Weather History Date:

Wednesday, November 27, 2013

  Actual Average Record
Temperature  
Mean Temperature 25 °F 41 °F  
Max Temperature 32 °F 51 °F 75 °F (1927)
Min Temperature 17 °F 32 °F 7 °F (1930)
Degree Days  
Heating Degree Days 40 24  
Month to date heating degree days 602 497  
Since 1 July heating degree days 941 838  
Cooling Degree Days 0 0  
Month to date cooling degree days 0 0  
Year to date cooling degree days 1127 1154  
Moisture  
Dew Point 22 °F    
Average Humidity 80    
Maximum Humidity 92    
Minimum Humidity 68    
Precipitation  
Precipitation 0.03 in 0.13 in 2.00 in (2001)
Month to date precipitation 2.67 3.33  
Year to date precipitation 45.22 41.21  
Sea Level Pressure  
Sea Level Pressure 30.10 in    
Wind  
Wind Speed 8 mph (NW)    
Max Wind Speed 16 mph    
Max Gust Speed 23 mph    
Visibility 7 miles    
Events Snow    
T = Trace of Precipitation, MM = Missing Value Source: NWS Daily Summary

Daily Weather History Graph

Daily Weather History Graph

Search for Another Location

Airport or City:

Trip Planner

Search our weather history database for the weather conditions in past years. The results will help you decide how hot, cold, wet, or windy it might be!

Date:

Astronomy

Nov. 27, 2013 Rise Set
Actual Time 7:33 AM EST 5:20 PM EST
Civil Twilight 7:04 AM EST 5:49 PM EST
Nautical Twilight 6:32 AM EST 6:22 PM EST
Astronomical Twilight 6:00 AM EST 6:53 PM EST
Moon 1:39 AM EST (11/27) 1:53 PM EST (11/27)
Length of Visible Light 10h 45m
Length of Day
9h 47m
Waning Crescent, 32% of the Moon is Illuminated
Nov 27
Waning Crescent
Dec 2
New
Dec 9
First Quarter
Dec 17
Full
Dec 25
Last Quarter

Hourly Weather History & Observations

Time (EST) Temp. Windchill Dew Point Humidity Pressure Visibility Wind Dir Wind Speed Gust Speed Precip Events Conditions
12:53 AM 32.0 °F 25.6 °F 28.9 °F 88% 29.94 in 8.0 mi NW 6.9 mph - N/A   Overcast
1:53 AM 32.0 °F 24.2 °F 28.0 °F 85% 29.96 in 10.0 mi NW 9.2 mph - N/A   Overcast
2:53 AM 32.0 °F 26.4 °F 28.0 °F 85% 29.96 in 9.0 mi NW 5.8 mph - N/A   Overcast
3:29 AM 32.0 °F 27.5 °F 28.4 °F 87% 29.94 in 8.0 mi WNW 4.6 mph - N/A   Overcast
3:53 AM 32.0 °F 24.8 °F 28.9 °F 88% 29.96 in 8.0 mi NW 8.1 mph - N/A   Overcast
4:53 AM 30.9 °F 22.2 °F 27.0 °F 85% 29.98 in 10.0 mi NNW 10.4 mph - N/A   Overcast
5:06 AM 30.2 °F 21.3 °F 26.6 °F 86% 29.97 in 10.0 mi NW 10.4 mph 19.6 mph N/A   Overcast
5:26 AM 30.2 °F 21.3 °F 26.6 °F 86% 29.97 in 10.0 mi NNW 10.4 mph 17.3 mph N/A   Overcast
5:53 AM 30.0 °F 22.4 °F 24.1 °F 79% 30.01 in 10.0 mi NNW 8.1 mph - N/A   Overcast
6:53 AM 28.9 °F 21.1 °F 24.1 °F 82% 30.02 in 10.0 mi NNW 8.1 mph - N/A   Overcast
7:53 AM 28.0 °F 20.0 °F 25.0 °F 88% 30.05 in 3.0 mi NW 8.1 mph - 0.01 in Snow Light Snow
8:07 AM 28.4 °F 20.4 °F 24.8 °F 86% 30.03 in 2.0 mi NW 8.1 mph - 0.00 in Snow Light Snow
8:21 AM 28.4 °F 21.2 °F 24.8 °F 86% 30.03 in 1.5 mi NNW 6.9 mph - 0.01 in Snow Light Snow
8:38 AM 28.4 °F 19.7 °F 24.8 °F 86% 30.04 in 2.0 mi NW 9.2 mph - 0.01 in Snow Light Snow
8:46 AM 28.4 °F 23.3 °F 24.8 °F 86% 30.04 in 2.0 mi NW 4.6 mph - 0.01 in Snow Light Snow
8:53 AM 28.0 °F 20.8 °F 25.0 °F 88% 30.06 in 2.5 mi NW 6.9 mph - 0.01 in Snow Light Snow
9:09 AM 28.4 °F 20.4 °F 24.8 °F 86% 30.05 in 1.0 mi WNW 8.1 mph - 0.00 in Snow Light Snow
9:13 AM 28.4 °F 21.2 °F 24.8 °F 86% 30.05 in 0.8 mi NW 6.9 mph - 0.01 in Snow Light Snow
9:32 AM 26.6 °F 20.0 °F 24.8 °F 93% 30.05 in 1.2 mi NW 5.8 mph - 0.01 in Snow Light Snow
9:36 AM 28.4 °F 21.2 °F 24.8 °F 86% 30.05 in 3.0 mi WNW 6.9 mph - 0.01 in Snow Light Snow
9:53 AM 28.0 °F 16.5 °F 24.1 °F 85% 30.08 in 7.0 mi NW 15.0 mph 20.7 mph 0.01 in   Overcast
10:53 AM 28.0 °F 17.5 °F 21.9 °F 78% 30.10 in 10.0 mi NW 12.7 mph 17.3 mph 0.00 in   Overcast
11:53 AM 28.0 °F 19.3 °F 21.0 °F 75% 30.09 in 10.0 mi NW 9.2 mph 19.6 mph N/A   Overcast
12:08 PM 28.4 °F 19.1 °F 21.2 °F 74% 30.07 in 10.0 mi NW 10.4 mph - N/A   Overcast
12:33 PM 28.4 °F 20.4 °F 19.4 °F 69% 30.07 in 10.0 mi NW 8.1 mph 19.6 mph N/A   Overcast
12:53 PM 28.0 °F 19.3 °F 19.9 °F 72% 30.09 in 10.0 mi WNW 9.2 mph - N/A   Overcast
1:16 PM 28.4 °F 19.7 °F 19.4 °F 69% 30.08 in 10.0 mi WNW 9.2 mph 18.4 mph N/A   Overcast
1:39 PM 28.4 °F 18.5 °F 19.4 °F 69% 30.08 in 10.0 mi NW 11.5 mph - N/A   Overcast
1:53 PM 28.0 °F 19.3 °F 19.9 °F 72% 30.11 in 10.0 mi WNW 9.2 mph 17.3 mph N/A   Overcast
2:53 PM 27.0 °F 16.1 °F 19.0 °F 72% 30.14 in 10.0 mi NW 12.7 mph 18.4 mph N/A   Overcast
3:53 PM 27.0 °F 17.3 °F 18.0 °F 69% 30.17 in 10.0 mi WNW 10.4 mph - N/A   Overcast
4:01 PM 26.6 °F 16.8 °F 17.6 °F 69% 30.15 in 10.0 mi NNW 10.4 mph 18.4 mph N/A   Overcast
4:40 PM 26.6 °F 18.2 °F 19.4 °F 74% 30.18 in 2.5 mi NW 8.1 mph - 0.00 in Snow Light Snow
4:50 PM 26.6 °F 18.2 °F 19.4 °F 74% 30.19 in 6.0 mi NW 8.1 mph - 0.00 in Snow Light Snow
4:53 PM 26.1 °F 17.6 °F 21.0 °F 81% 30.22 in 3.0 mi NNW 8.1 mph - 0.00 in Snow Light Snow
5:08 PM 26.6 °F 20.0 °F 19.4 °F 74% 30.19 in 9.0 mi NW 5.8 mph - 0.00 in   Overcast
5:53 PM 26.1 °F 20.5 °F 19.0 °F 75% 30.24 in 10.0 mi NW 4.6 mph - 0.00 in   Overcast
6:53 PM 24.1 °F 16.0 °F 17.1 °F 75% 30.28 in 10.0 mi Variable 6.9 mph - N/A   Clear
7:53 PM 21.9 °F - 16.0 °F 78% 30.30 in 10.0 mi Calm Calm - N/A   Clear
8:53 PM 21.0 °F 16.2 °F 15.1 °F 78% 30.30 in 10.0 mi West 3.5 mph - N/A   Clear
9:53 PM 19.9 °F 14.9 °F 15.1 °F 81% 30.33 in 10.0 mi West 3.5 mph - N/A   Clear
10:53 PM 19.9 °F 14.9 °F 14.0 °F 78% 30.33 in 10.0 mi West 3.5 mph - N/A   Clear
11:53 PM 19.0 °F - 12.9 °F 77% 30.34 in 10.0 mi Calm Calm - N/A   Clear